This is the latest recevied weather packets stored in our database for station/object DL3NDS-WX. If no packets are shown the sender has not sent any weather packets the latest 1 day(s).
| Time | Temp. | Humidity | Pressure | Rain* | Wind** | Luminosity | Snow |
|---|---|---|---|---|---|---|---|
| 1777961721 | 13.89° C | 83% | 1011.1 hPa | 0 mm | 0 m/s | 128 W/m² | - |
| 1777961658 | 13.89° C | 82% | 1011.1 hPa | 0 mm | 0.45 m/s, 331° | 125 W/m² | - |
| 1777961597 | 13.89° C | 83% | 1011.1 hPa | 0 mm | 0.45 m/s, 331° | 123 W/m² | - |
| 1777961535 | 13.89° C | 83% | 1011.1 hPa | 0 mm | 0 m/s | 121 W/m² | - |
| 1777961487 | 13.89° C | 82% | 1011.1 hPa | 0 mm | 0 m/s | 125 W/m² | - |
| 1777961453 | 13.89° C | 82% | 1011.1 hPa | 0 mm | 0 m/s | 128 W/m² | - |
| 1777961353 | 13.89° C | 82% | 1011.1 hPa | 0 mm | 0.45 m/s, 17° | 134 W/m² | - |
| 1777961297 | 13.89° C | 82% | 1011.1 hPa | 0 mm | 0.45 m/s, 10° | 139 W/m² | - |
| 1777961227 | 13.89° C | 83% | 1011 hPa | 0 mm | 0 m/s | 148 W/m² | - |
| 1777961167 | 13.89° C | 83% | 1011.1 hPa | 0 mm | 0 m/s | 148 W/m² | - |
| 1777961106 | 13.33° C | 83% | 1011 hPa | 0 mm | 0 m/s | 165 W/m² | - |
| 1777961045 | 13.33° C | 83% | 1011.1 hPa | 0 mm | 0.45 m/s, 334° | 192 W/m² | - |
| 1777960971 | 13.33° C | 83% | 1011 hPa | 0 mm | 0.45 m/s, 334° | 144 W/m² | - |
| 1777960913 | 13.33° C | 83% | 1011.1 hPa | 0 mm | 0.45 m/s, 330° | 149 W/m² | - |
| 1777960860 | 13.33° C | 83% | 1011 hPa | 0 mm | 0.45 m/s, 330° | 153 W/m² | - |
| 1777960785 | 13.33° C | 83% | 1011.2 hPa | 0 mm | 0.45 m/s, 330° | 214 W/m² | - |
| 1777960729 | 13.33° C | 82% | 1011.2 hPa | 0 mm | 0.89 m/s, 241° | 274 W/m² | - |
| 1777960663 | 13.33° C | 82% | 1011.1 hPa | 0 mm | 0.89 m/s, 241° | 281 W/m² | - |
| 1777960603 | 13.33° C | 82% | 1011.2 hPa | 0 mm | 0.89 m/s, 254° | 188 W/m² | - |
| 1777960541 | 13.33° C | 83% | 1011.1 hPa | 0 mm | 0 m/s | 216 W/m² | - |
| 1777960480 | 13.33° C | 83% | 1011.2 hPa | 0 mm | 0 m/s | 197 W/m² | - |
| 1777960419 | 13.33° C | 83% | 1011.2 hPa | 0 mm | 0.45 m/s, 253° | 169 W/m² | - |
| 1777960352 | 13.33° C | 83% | 1011.1 hPa | 0 mm | 0.45 m/s, 242° | 158 W/m² | - |
| 1777960284 | 13.33° C | 83% | 1011.1 hPa | 0 mm | 0 m/s | 156 W/m² | - |
| 1777960223 | 13.33° C | 83% | 1011.1 hPa | 0 mm | 0 m/s | 142 W/m² | - |
* Rain latest hour (hover to see other rain measurements)
** Current wind speed in m/s (hover to see current wind gust speed)